Flag for Switzerland Weather past 2 weeks in Winterthur, Switzerland

Now
37 °F

Light rain. Broken clouds.


Feels Like: 32 °F
Forecast: 32 / 53 °F
Wind: 7 mph from Southeast

Location: Zurich-Kloten


UV Index: 3 (Moderate)

Visibility: 4 mi


Pressure: 29.92 "Hg

Humidity: 100%

Dew point: 37 °F

Location of WinterthurLocation

Historic Weather in Winterthur

°F

Winterthur temperature yesterday

Maximum temperature yesterday: 61 °F (at 5:20 PM)
Minimum temperature yesterday: 32 °F (at 4:50 AM)
Average temperature yesterday: 47 °F

Past Weeks' High & Low Weather Summary

 TemperatureHumidityPressure
High70 °F (Apr 7, 6:50 PM)100% (Apr 4, 2:50 AM)30.33 "Hg (Apr 4, 2:50 AM)
Low32 °F (Apr 16, 5:20 AM)25% (Apr 17, 6:20 PM)29.65 "Hg (Apr 3, 5:20 PM)
Average51 °F66%30.07 "Hg
* Reported Apr 3 5:20 PM — Apr 18 5:20 PM, Winterthur, Weather by CustomWeather, © 2014

Note: Actual official high and low records may vary slightly from our data, if they occured in-between our weather recording intervals... More about our weather records

Advertising

Historic Weather Conditions — Data for Previous 24 hours

 ConditionsComfort  
Time TempWeatherWind HumidityBarometerVisibility
5:20 PM
Apr 18
39 °FRain. Broken clouds.7 mph87%29.89 "Hg4 mi
4:50 PM39 °FRain. Broken clouds.12 mph87%29.89 "Hg4 mi
4:20 PM41 °FRain. Partly sunny.17 mph93%29.86 "Hg4 mi
3:20 PM46 °FRain. Partly sunny.3 mph87%29.86 "Hg4 mi
2:50 PM48 °FSprinkles. Broken clouds.7 mph76%29.86 "Hg4 mi
2:20 PM50 °FScattered showers. Partly sunny.3 mph67%29.86 "HgN/A
1:50 PM50 °FMostly cloudy.6 mph67%29.86 "HgN/A
1:20 PM50 °FPartly sunny.5 mph67%29.86 "HgN/A
12:50 PM48 °FPartly sunny.5 mph71%29.86 "HgN/A
12:20 PM48 °FLight rain. Partly sunny.6 mph76%29.89 "HgN/A
11:50 AM48 °FLight rain. Partly sunny.6 mph71%29.89 "HgN/A
11:20 AM50 °FLight rain. Partly sunny.2 mph62%29.89 "HgN/A
10:50 AM50 °FPartly sunny.3 mph58%29.89 "HgN/A
10:20 AM50 °FPartly sunny.3 mph58%29.89 "HgN/A
9:50 AM48 °FPartly sunny.6 mph62%29.89 "HgN/A
9:20 AM48 °FPartly sunny.No wind66%29.89 "HgN/A
8:50 AM46 °FPartly sunny.2 mph71%29.89 "HgN/A
8:20 AM46 °FPartly sunny.3 mph66%29.89 "HgN/A
7:50 AM43 °FPartly sunny.6 mph76%29.89 "HgN/A
7:20 AM43 °FPassing clouds.6 mph71%29.89 "HgN/A
6:50 AM43 °FClear.6 mph71%29.92 "Hg10 mi
6:20 AM41 °FClear.5 mph76%29.92 "Hg10 mi
5:50 AM41 °FClear.6 mph76%29.92 "Hg10 mi
5:20 AM39 °FClear.5 mph81%29.92 "Hg10 mi
4:50 AM39 °FClear.1 mph75%29.95 "Hg10 mi
4:20 AM39 °FClear.6 mph81%29.95 "Hg10 mi
3:50 AM39 °FClear.6 mph75%29.95 "Hg10 mi
3:20 AM37 °FClear.5 mph81%29.95 "Hg10 mi
2:50 AM39 °FClear.5 mph70%29.95 "Hg10 mi
1:50 AM37 °FClear.3 mph75%29.98 "Hg10 mi
1:20 AM39 °FClear.2 mph75%29.98 "Hg10 mi
12:50 AM39 °FClear.2 mph75%29.98 "Hg10 mi
12:20 AM43 °FClear.5 mph61%30.01 "Hg10 mi
11:50 PM
Apr 17
41 °FClear.3 mph66%30.01 "Hg10 mi
11:20 PM43 °FClear.2 mph61%30.01 "Hg10 mi
10:50 PM41 °FClear.2 mph66%30.01 "Hg10 mi
10:20 PM43 °FClear.2 mph66%30.01 "Hg10 mi
9:50 PM46 °FClear.2 mph53%30.04 "Hg10 mi
9:20 PM48 °FClear.2 mph50%30.04 "Hg10 mi
8:50 PM52 °FSunny.1 mph41%30.01 "Hg10 mi
8:20 PM57 °FSunny.2 mph27%30.01 "Hg10 mi
7:50 PM57 °FSunny.3 mph27%30.01 "Hg10 mi
6:50 PM59 °FPassing clouds.3 mph29%30.04 "HgN/A
6:20 PM59 °FPassing clouds.5 mph25%30.04 "HgN/A
Weather by CustomWeather, © 2014

See weather overview